Weather History for PAHN - March, 2013

Change the Weather History Date:

Sunday, March 31, 2013

  Actual Average Record
Temperature  
Mean Temperature 38 °F -  
Max Temperature 45 °F 38 °F 54 °F (1981)
Min Temperature 33 °F 28 °F 20 °F (1979)
Degree Days  
Heating Degree Days 26    
Moisture  
Dew Point 32 °F    
Average Humidity 82    
Maximum Humidity 100    
Minimum Humidity 53    
Precipitation  
Precipitation 0.00 in - - ()
Sea Level Pressure  
Sea Level Pressure 30.28 in    
Wind  
Wind Speed 8 mph (WNW)    
Max Wind Speed 13 mph    
Max Gust Speed -    
Visibility 8 miles    
Events      
Averages and records for this station are not official NWS values.
T = Trace of Precipitation, MM = Missing Value Source: NWS Daily Summary

Daily Weather History Graph

Daily Weather History Graph

Search for Another Location

Airport or City:

Trip Planner

Search our weather history database for the weather conditions in past years. The results will help you decide how hot, cold, wet, or windy it might be!

Date:

Astronomy

Mar. 31, 2013 Rise Set
Actual Time 6:29 AM AKDT 7:43 PM AKDT
Civil Twilight 5:48 AM AKDT 8:25 PM AKDT
Nautical Twilight 4:56 AM AKDT 9:17 PM AKDT
Astronomical Twilight 3:57 AM AKDT 10:17 PM AKDT
Moon 1:00 AM AKDT (3/31) 8:19 AM AKDT (3/31)
Length of Visible Light 14h 37m
Length of Day
13h 13m
Waning Gibbous, 76% of the Moon is Illuminated
Mar 31
Waning Gibbous
Apr 2
Last Quarter
Apr 10
New
Apr 18
First Quarter
Apr 25
Full

Hourly Weather History & Observations

Time (AKDT) Temp. Windchill Dew Point Humidity Pressure Visibility Wind Dir Wind Speed Gust Speed Precip Events Conditions
12:54 AM 37.0 °F 31.0 °F 33.1 °F 86% 30.36 in 10.0 mi NW 8.1 mph - N/A   Overcast
1:26 AM 37.4 °F 33.8 °F 33.8 °F 87% 30.35 in 9.0 mi WNW 4.6 mph - N/A   Overcast
1:54 AM 36.0 °F 30.3 °F 34.0 °F 93% 30.36 in 10.0 mi WNW 6.9 mph - 0.00 in   Overcast
2:14 AM 35.6 °F 31.7 °F 33.8 °F 93% 30.35 in 10.0 mi WNW 4.6 mph - N/A   Overcast
2:54 AM 36.0 °F 29.6 °F 34.0 °F 93% 30.36 in 10.0 mi WNW 8.1 mph - N/A   Overcast
3:18 AM 35.6 °F 29.2 °F 33.8 °F 93% 30.36 in 10.0 mi WNW 8.1 mph - N/A   Overcast
3:54 AM 36.0 °F 29.6 °F 33.1 °F 89% 30.36 in 10.0 mi WNW 8.1 mph - N/A   Overcast
4:54 AM 35.1 °F 29.3 °F 34.0 °F 96% 30.35 in 7.0 mi WNW 6.9 mph - N/A   Overcast
5:49 AM 33.8 °F 25.3 °F 33.8 °F 100% 30.35 in 2.5 mi WNW 11.5 mph - N/A   Overcast
5:54 AM 34.0 °F 25.5 °F 34.0 °F 100% 30.36 in 2.0 mi NW 11.5 mph - N/A   Overcast
6:01 AM 33.8 °F 25.3 °F 33.8 °F 100% 30.35 in 1.8 mi WNW 11.5 mph - N/A   Overcast
6:09 AM 33.8 °F 24.8 °F 33.8 °F 100% 30.35 in 1.8 mi WNW 12.7 mph - N/A   Overcast
6:17 AM 33.8 °F 24.8 °F 33.8 °F 100% 30.35 in 3.0 mi WNW 12.7 mph - N/A   Overcast
6:31 AM 33.8 °F 25.3 °F 33.8 °F 100% 30.35 in 7.0 mi WNW 11.5 mph - N/A   Overcast
6:54 AM 34.0 °F 25.0 °F 33.1 °F 96% 30.35 in 10.0 mi WNW 12.7 mph - N/A   Overcast
7:54 AM 34.0 °F 25.0 °F 32.0 °F 92% 30.35 in 9.0 mi WNW 12.7 mph - N/A   Overcast
8:54 AM 35.1 °F 26.9 °F 32.0 °F 89% 30.34 in 10.0 mi WNW 11.5 mph - N/A   Overcast
9:54 AM 37.0 °F 29.3 °F 32.0 °F 82% 30.33 in 10.0 mi WNW 11.5 mph - N/A   Overcast
10:54 AM 39.0 °F 32.3 °F 32.0 °F 76% 30.31 in 10.0 mi WNW 10.4 mph - N/A   Overcast
11:54 AM 42.1 °F 35.2 °F 32.0 °F 67% 30.31 in 10.0 mi WNW 12.7 mph - N/A   Mostly Cloudy
12:54 PM 42.1 °F 35.7 °F 32.0 °F 67% 30.28 in 10.0 mi WNW 11.5 mph - N/A   Mostly Cloudy
1:54 PM 44.1 °F 39.0 °F 30.0 °F 58% 30.27 in 10.0 mi West 9.2 mph - N/A   Scattered Clouds
2:54 PM 44.1 °F 39.5 °F 28.9 °F 55% 30.24 in 10.0 mi West 8.1 mph - N/A   Mostly Cloudy
3:54 PM 44.1 °F 41.5 °F 28.9 °F 55% 30.22 in 10.0 mi West 4.6 mph - N/A   Clear
4:54 PM 44.1 °F - 28.0 °F 53% 30.19 in 10.0 mi Calm Calm - N/A   Scattered Clouds
5:54 PM 39.9 °F - 30.9 °F 70% 30.17 in 10.0 mi Calm Calm - N/A   Mostly Cloudy
6:54 PM 41.0 °F 39.0 °F 30.9 °F 67% 30.14 in 10.0 mi NW 3.5 mph - N/A   Overcast
7:54 PM 37.0 °F - 30.9 °F 79% 30.12 in 10.0 mi Calm Calm - N/A   Overcast
8:54 PM 37.0 °F 32.4 °F 30.0 °F 76% 30.10 in 10.0 mi WNW 5.8 mph - N/A   Overcast
9:54 PM 39.0 °F 34.8 °F 27.0 °F 62% 30.08 in 10.0 mi NW 5.8 mph - N/A   Overcast
10:54 PM 36.0 °F - 30.0 °F 79% 30.07 in 10.0 mi Calm Calm - N/A   Overcast
11:54 PM 36.0 °F 30.3 °F 28.9 °F 76% 30.05 in 10.0 mi WNW 6.9 mph - N/A   Overcast